Marion, SC

5:38 PM EDT on May 22, 2017 (GMT -0400)
Marion County

Weather History for KMAO - December, 2013

Change the Weather History Date:

Saturday, December 14, 2013

  Actual Average (KFLO) Record (KFLO)
Temperature  
Mean Temperature 54 °F -  
Max Temperature 68 °F 59 °F 80 °F (1956)
Min Temperature 41 °F 37 °F 15 °F (1960)
Degree Days  
Heating Degree Days 10    
Growing Degree Days 4 (Base 50)    
Moisture  
Dew Point 48 °F    
Average Humidity 82    
Maximum Humidity 100    
Minimum Humidity 62    
Precipitation  
Precipitation 0.96 in - - ()
Sea Level Pressure  
Sea Level Pressure 30.04 in    
Wind  
Wind Speed 6 mph (ESE)    
Max Wind Speed 18 mph    
Max Gust Speed 25 mph    
Visibility 9 miles    
Events Rain , Thunderstorm    
Averages and records for this station are not official NWS values.
T = Trace of Precipitation, MM = Missing Value Source: NWS Daily Summary

Daily Weather History Graph

Daily Weather History Graph

Search for Another Location

Airport or City:

Trip Planner

Search our weather history database for the weather conditions in past years. The results will help you decide how hot, cold, wet, or windy it might be!

Date:

Astronomy

Dec. 14, 2013 Rise Set
Actual Time 7:15 AM EST 5:08 PM EST
Civil Twilight 6:47 AM EST 5:36 PM EST
Nautical Twilight 6:16 AM EST 6:08 PM EST
Astronomical Twilight 5:45 AM EST 6:38 PM EST
Moon 3:25 PM EST (12/14) 4:39 AM EST (12/14)
Length of Visible Light 10h 49m
Length of Day
9h 53m
Waxing Gibbous, 93% of the Moon is Illuminated
Dec 14
Waxing Gibbous
Dec 17
Full
Dec 25
Last Quarter
Jan 1
New
Jan 7
First Quarter

Hourly Weather History & Observations

Time (EST) Temp. Windchill Dew Point Humidity Pressure Visibility Wind Dir Wind Speed Gust Speed Precip Events Conditions
12:15 AM 41.0 °F 38.0 °F 32.0 °F 70% 30.29 in 10.0 mi ENE 4.6 mph - N/A   Scattered Clouds
12:35 AM 42.8 °F 40.1 °F 32.0 °F 66% 30.29 in 10.0 mi ENE 4.6 mph - N/A   Scattered Clouds
12:55 AM 42.8 °F - 32.0 °F 66% 30.28 in 10.0 mi Calm Calm - N/A   Scattered Clouds
1:15 AM 42.8 °F 41.1 °F 32.0 °F 66% 30.27 in 10.0 mi ENE 3.5 mph - N/A   Scattered Clouds
1:35 AM 42.8 °F - 32.0 °F 66% 30.28 in 10.0 mi Calm Calm - N/A   Clear
1:55 AM 42.8 °F - 32.0 °F 66% 30.28 in 10.0 mi Calm Calm - N/A   Clear
2:15 AM 42.8 °F 39.3 °F 32.0 °F 66% 30.26 in 10.0 mi East 5.8 mph - N/A   Scattered Clouds
2:35 AM 42.8 °F 38.6 °F 32.0 °F 66% 30.24 in 10.0 mi ENE 6.9 mph - N/A   Scattered Clouds
2:55 AM 42.8 °F 41.1 °F 33.8 °F 70% 30.26 in 10.0 mi NE 3.5 mph - N/A   Scattered Clouds
3:15 AM 42.8 °F 41.1 °F 33.8 °F 70% 30.25 in 10.0 mi NE 3.5 mph - N/A   Mostly Cloudy
3:35 AM 44.6 °F 41.4 °F 33.8 °F 66% 30.25 in 10.0 mi NE 5.8 mph - N/A   Overcast
3:55 AM 44.6 °F 41.4 °F 33.8 °F 66% 30.24 in 10.0 mi NE 5.8 mph - N/A   Overcast
4:15 AM 44.6 °F 42.2 °F 33.8 °F 66% 30.25 in 10.0 mi NE 4.6 mph - N/A   Overcast
4:35 AM 44.6 °F 43.1 °F 33.8 °F 66% 30.25 in 10.0 mi ENE 3.5 mph - N/A   Overcast
4:55 AM 46.4 °F 45.2 °F 33.8 °F 62% 30.24 in 10.0 mi East 3.5 mph - N/A   Overcast
5:15 AM 46.4 °F 41.9 °F 35.6 °F 66% 30.23 in 10.0 mi ENE 9.2 mph - N/A Rain Rain
5:35 AM 46.4 °F 42.4 °F 35.6 °F 66% 30.23 in 10.0 mi NE 8.1 mph - N/A   Overcast
5:55 AM 44.6 °F 41.4 °F 35.6 °F 71% 30.22 in 10.0 mi ENE 5.8 mph - N/A   Overcast
6:15 AM 46.4 °F 42.9 °F 35.6 °F 66% 30.22 in 10.0 mi ENE 6.9 mph - N/A   Overcast
6:35 AM 46.4 °F 42.4 °F 33.8 °F 62% 30.20 in 10.0 mi ENE 8.1 mph - N/A   Overcast
6:55 AM 46.4 °F 42.9 °F 33.8 °F 62% 30.22 in 10.0 mi ENE 6.9 mph - N/A   Overcast
7:15 AM 46.4 °F 42.9 °F 33.8 °F 62% 30.21 in 10.0 mi ENE 6.9 mph - N/A   Overcast
7:35 AM 46.4 °F 42.9 °F 33.8 °F 62% 30.21 in 10.0 mi ENE 6.9 mph - N/A   Overcast
7:55 AM 46.4 °F 42.9 °F 33.8 °F 62% 30.20 in 10.0 mi ENE 6.9 mph - N/A   Overcast
8:15 AM 46.4 °F 42.9 °F 35.6 °F 66% 30.21 in 7.0 mi NE 6.9 mph - N/A Rain Rain
8:35 AM 44.6 °F 42.2 °F 37.4 °F 76% 30.21 in 10.0 mi ENE 4.6 mph - 0.01 in   Overcast
8:55 AM 46.4 °F 43.5 °F 37.4 °F 71% 30.20 in 10.0 mi ENE 5.8 mph - 0.01 in   Overcast
9:15 AM 46.4 °F 45.2 °F 41.0 °F 81% 30.22 in 4.0 mi ENE 3.5 mph - 0.01 in Rain Rain
9:35 AM 46.4 °F 42.4 °F 42.8 °F 87% 30.20 in 10.0 mi ENE 8.1 mph - 0.02 in   Overcast
9:55 AM 46.4 °F 42.4 °F 42.8 °F 87% 30.20 in 7.0 mi East 8.1 mph - 0.03 in Rain Rain
10:15 AM 46.4 °F 42.9 °F 44.6 °F 93% 30.18 in 10.0 mi East 6.9 mph - 0.01 in Rain Light Rain
10:35 AM 46.4 °F 41.9 °F 44.6 °F 93% 30.16 in 7.0 mi East 9.2 mph - 0.01 in   Light Drizzle
10:55 AM 48.2 °F - 44.6 °F 87% 30.14 in 10.0 mi East 8.1 mph - 0.01 in   Overcast
11:15 AM 51.8 °F - 48.2 °F 88% 30.12 in 10.0 mi East 6.9 mph - N/A   Mostly Cloudy
11:35 AM 53.6 °F - 50.0 °F 88% 30.10 in 10.0 mi East 8.1 mph - N/A   Scattered Clouds
11:55 AM 55.4 °F - 51.8 °F 88% 30.07 in 10.0 mi East 6.9 mph - N/A   Scattered Clouds
12:15 PM 57.2 °F - 51.8 °F 82% 30.04 in 10.0 mi East 6.9 mph - N/A   Scattered Clouds
12:35 PM 59.0 °F - 51.8 °F 77% 30.02 in 10.0 mi ESE 5.8 mph - N/A   Mostly Cloudy
12:55 PM 60.8 °F - 53.6 °F 77% 29.98 in 10.0 mi ESE 8.1 mph - N/A   Mostly Cloudy
1:15 PM 62.6 °F - 53.6 °F 72% 29.97 in 10.0 mi SE 4.6 mph - N/A   Mostly Cloudy
1:35 PM 62.6 °F - 55.4 °F 77% 29.95 in 10.0 mi ESE 4.6 mph - N/A   Overcast
1:55 PM 64.4 °F - 57.2 °F 77% 29.92 in 10.0 mi SSE 11.5 mph - N/A   Mostly Cloudy
2:15 PM 66.2 °F - 55.4 °F 68% 29.90 in 10.0 mi SSE 17.3 mph 23.0 mph N/A   Overcast
2:35 PM 68.0 °F - 55.4 °F 64% 29.88 in 10.0 mi SSE 17.3 mph 23.0 mph N/A   Overcast
2:55 PM 64.4 °F - 57.2 °F 77% 29.87 in 10.0 mi SSE 13.8 mph 20.7 mph N/A Rain Light Rain
3:15 PM 64.4 °F - 59.0 °F 83% 29.87 in 7.0 mi SSE 18.4 mph 25.3 mph N/A Rain Light Rain
3:35 PM 62.6 °F - 59.0 °F 88% 29.86 in 10.0 mi SSE 10.4 mph 21.9 mph N/A   Overcast
3:55 PM 62.6 °F - 60.8 °F 94% 29.86 in 7.0 mi SSE 11.5 mph - 0.01 in Rain Light Rain
4:15 PM 62.6 °F - 60.8 °F 94% 29.85 in 10.0 mi SSE 12.7 mph 23.0 mph 0.01 in Rain Light Rain
4:35 PM 62.6 °F - 60.8 °F 94% 29.84 in 7.0 mi SSE 10.4 mph - 0.06 in Rain , Thunderstorm Light Thunderstorms and Rain
4:55 PM 62.6 °F - 62.6 °F 100% 29.82 in 10.0 mi SE 6.9 mph - 0.07 in Rain , Thunderstorm Light Thunderstorms and Rain
5:15 PM 62.6 °F - 62.6 °F 100% 29.85 in 10.0 mi WSW 17.3 mph 25.3 mph N/A Rain Light Rain
5:35 PM 62.6 °F - 62.6 °F 100% 29.85 in 10.0 mi WSW 9.2 mph - N/A Rain Rain
5:55 PM 62.6 °F - 62.6 °F 100% 29.84 in 4.0 mi SSW 5.8 mph - 0.06 in Rain Light Rain
6:15 PM 64.4 °F - 64.4 °F 100% 29.84 in 7.0 mi SSW 8.1 mph - 0.01 in Rain Rain
6:35 PM 64.4 °F - 64.4 °F 100% 29.84 in 7.0 mi SSW 10.4 mph 17.3 mph 0.05 in Rain Heavy Rain
6:55 PM 64.4 °F - 64.4 °F 100% 29.83 in 10.0 mi SSW 11.5 mph - 0.07 in Rain Light Rain
7:15 PM 64.4 °F - 64.4 °F 100% 29.84 in 10.0 mi WSW 8.1 mph - 0.02 in Rain Light Rain
7:35 PM 62.6 °F - 60.8 °F 94% 29.86 in 1.2 mi West 9.2 mph 19.6 mph 0.29 in Rain Heavy Rain
7:55 PM 60.8 °F - 60.8 °F 100% 29.84 in 7.0 mi West 6.9 mph - 0.34 in Rain Light Rain
8:15 PM 60.8 °F - 59.0 °F 94% 29.84 in 7.0 mi West 3.5 mph - 0.02 in Rain Rain
8:35 PM 60.8 °F - 59.0 °F 94% 29.84 in 5.0 mi South 3.5 mph - 0.06 in Rain Rain
8:55 PM 60.8 °F - 60.8 °F 100% 29.83 in 5.0 mi South 3.5 mph - 0.14 in Rain Heavy Rain
9:15 PM 60.8 °F - 60.8 °F 100% 29.82 in 4.0 mi SSE 4.6 mph - 0.09 in Rain Heavy Rain
9:35 PM 60.8 °F - 60.8 °F 100% 29.82 in 10.0 mi Calm Calm - 0.11 in Rain Light Rain
9:55 PM 60.8 °F - 60.8 °F 100% 29.81 in 5.0 mi Calm Calm - 0.14 in Rain Rain
10:15 PM 60.8 °F - 60.8 °F 100% 29.82 in 10.0 mi SSW 5.8 mph - 0.01 in Rain Rain
10:35 PM 60.8 °F - 60.8 °F 100% 29.81 in 7.0 mi WNW 3.5 mph - 0.05 in Rain Rain
10:55 PM 60.8 °F - 60.8 °F 100% 29.80 in 7.0 mi West 5.8 mph - 0.06 in   Mostly Cloudy
11:15 PM 60.8 °F - 60.8 °F 100% 29.80 in 10.0 mi SW 4.6 mph - N/A   Scattered Clouds
11:35 PM 60.8 °F - 60.8 °F 100% 29.79 in 7.0 mi SW 4.6 mph - 0.01 in Rain Rain
11:55 PM 60.8 °F - 60.8 °F 100% 29.79 in 7.0 mi WSW 3.5 mph - 0.02 in Rain Rain